Location: Blackwater
(51.3167°N, 0.7833°W)
Time: 01:09:20
(UTC+00:00)

Daily predictions for brighter satellites

Satellite Brightness Start Highest point End
(mag) Time Altitude Azimuth Time Altitude Azimuth Time Altitude Azimuth
SL-4 R/B 3.4 00:01:50 12° WNW 00:01:50 12° WNW 00:02:22 10° WNW
ATLAS CENTAUR R/B 2.9 00:01:16 10° NW 00:03:02 26° NNE 00:05:36 10° E
Lacrosse 5 3.9 00:01:06 10° W 00:03:04 12° WSW 00:03:12 12° WSW
STARLINK-1226 3.2 00:00:09 10° WNW 00:03:16 66° N 00:06:22 10° E
STARLINK-1215 3.2 00:01:06 10° WNW 00:04:12 66° N 00:07:20 10° E
STARLINK-1225 3.5 00:00:17 10° WSW 00:04:27 89° SSE 00:08:37 10° ENE
Cosmos 292 Rocket 3.7 00:03:39 32° SSW 00:05:56 86° ESE 00:10:50 10° NNE
STARLINK-1217 3.2 00:02:52 10° WNW 00:05:59 67° N 00:09:05 10° E
STARLINK-1229 3.2 00:03:47 10° WNW 00:06:54 67° N 00:10:01 10° E
STARLINK-1271 3.9 00:03:08 10° W 00:07:16 68° N 00:11:25 10° E
STARLINK-1104 4.0 00:03:44 10° WNW 00:07:39 42° SSW 00:08:13 40° S
STARLINK-1270 3.2 00:04:39 10° WNW 00:07:46 68° N 00:10:53 10° E
S3M 4.2 00:03:11 10° NNW 00:09:13 61° W 00:12:36 27° SSW
STARLINK-1230 3.5 00:05:16 10° WSW 00:09:25 88° N 00:13:35 10° ENE
STARLINK-1189 3.1 00:06:29 10° WNW 00:09:37 68° N 00:12:43 10° E
Cosmos 1726 2.1 00:06:11 10° NNW 00:09:52 72° W 00:10:54 44° SSW
STARLINK-1188 3.1 00:07:22 10° WNW 00:10:30 69° N 00:13:37 10° E
Cosmos 2058 Rocket 4.5 00:06:52 10° N 00:10:51 32° ENE 00:13:45 16° SE
Cosmos 1655 Rocket 4.0 00:07:30 26° SSW 00:11:10 77° W 00:17:27 10° N
STARLINK-1235 3.0 00:08:05 10° WNW 00:11:11 74° NNE 00:14:17 10° E
STARLINK-1187 3.0 00:08:30 10° WNW 00:11:36 71° N 00:14:42 10° E
GEOS 3 Rocket 3.7 00:07:39 14° SE 00:12:14 81° NE 00:17:34 10° NW
STARLINK-1154 3.9 00:08:07 10° W 00:12:16 68° N 00:16:24 10° E
STARLINK-1144 4.0 00:08:44 10° WNW 00:12:37 40° SSW 00:13:00 39° SSW
SL-27 R/B 3.7 00:09:33 10° NW 00:12:41 27° WSW 00:13:10 26° WSW
Meteor 1-29 4.4 00:09:54 10° NE 00:12:46 24° E 00:13:32 22° ESE
STARLINK-1191 3.1 00:09:51 10° WNW 00:12:58 69° N 00:16:03 10° E
Cosmos 2228 3.3 00:09:19 10° N 00:13:33 58° ENE 00:15:32 29° SE
SJ 16-02 4.2 00:11:36 10° NNE 00:13:45 13° NE 00:15:53 10° ENE
STARLINK-1221 3.1 00:10:44 10° WNW 00:13:50 70° N 00:16:56 10° E
COSMOS 2455 3.8 00:11:39 24° SSE 00:14:11 33° ESE 00:19:29 10° NE
STARLINK-1243 3.6 00:10:14 10° WSW 00:14:24 85° NNW 00:18:34 10° ENE
STARLINK-1222 3.1 00:11:37 10° WNW 00:14:43 70° N 00:17:49 10° E
Cosmos 2263 4.1 00:12:25 29° SSW 00:15:23 75° ESE 00:21:01 10° NNE
STARLINK-1214 3.1 00:12:32 10° WNW 00:15:38 70° N 00:18:44 10° E
Meteor 2-15 Rocket 4.5 00:10:59 10° N 00:17:12 83° E 00:20:55 26° SSE
STARLINK-1197 3.9 00:13:06 10° W 00:17:15 68° N 00:21:24 10° E
STARLINK-1103 4.1 00:13:44 10° WNW 00:17:34 37° SW 00:17:46 37° SSW
Cosmos 1953 2.7 00:14:15 10° NNW 00:18:11 52° W 00:19:26 36° SSW
STARLINK-1236 3.6 00:15:14 10° WSW 00:19:23 83° NNW 00:23:33 10° ENE
Cosmos 1340 Rocket 2.9 00:15:46 10° NNW 00:19:46 67° W 00:21:08 39° SSW
STARLINK-1198 3.9 00:18:04 10° W 00:22:13 69° N 00:26:21 10° E
STARLINK-1101 4.2 00:18:43 10° W 00:22:31 35° SW 00:22:33 35° SW
Cosmos 1300 4.4 00:19:20 10° N 00:22:40 27° ENE 00:25:04 15° ESE
Cosmos 1271 Rocket 3.6 00:21:40 27° WSW 00:23:16 41° WNW 00:27:00 10° N
Cosmos 1461 4.3 00:19:49 10° WSW 00:23:47 37° NW 00:27:57 10° NNE
BREEZE M DEB (TANK) 4.5 00:26:49 12° ESE 00:26:49 12° ESE 00:27:03 10° E
COSMOS 2487 2.3 00:22:45 10° NNW 00:26:14 84° ENE 00:27:18 42° SSE
Cosmos 1833 4.3 00:21:23 10° NW 00:26:56 59° WSW 00:29:45 29° S
STARLINK-1199 3.9 00:23:05 10° W 00:27:14 69° N 00:31:23 10° E
STARLINK-1102 4.3 00:23:45 10° W 00:27:21 33° SW 00:27:21 33° SW
Cosmos 1992 Rocket 3.9 00:25:15 30° SSW 00:27:55 87° ESE 00:33:10 10° NNE
STARLINK-1269 3.7 00:25:11 10° W 00:29:20 79° NNW 00:33:30 10° ENE
Cosmos 1707 3.7 00:29:05 25° WSW 00:30:44 38° WNW 00:34:25 10° N
STARLINK-1210 3.9 00:28:04 10° W 00:32:13 70° N 00:36:22 10° E
STARLINK-1111 4.5 00:28:45 10° W 00:32:07 30° SW 00:32:07 30° SW
STARLINK-1200 3.7 00:30:11 10° W 00:34:20 77° NNW 00:38:30 10° ENE
USA 215 4.5 00:33:07 20° SW 00:34:26 21° SW 00:39:14 10° WNW
Cosmos 1626 3.5 00:34:31 22° SE 00:35:59 29° E 00:39:15 10° NNE
Cosmos 1656 Rocket 3.6 00:33:52 28° SSW 00:36:56 79° ESE 00:42:32 10° NNE
Cosmos 1606 Rocket 3.4 00:32:36 10° NNW 00:36:57 82° W 00:38:48 34° S
STARLINK-1219 3.9 00:33:03 10° W 00:37:12 71° N 00:41:21 10° E
In-Cosmos 22 4.1 00:35:37 28° SSW 00:38:28 73° WNW 00:43:47 10° N
STARLINK-1192 3.8 00:35:11 10° W 00:39:20 75° N 00:43:30 10° ENE
FALCON 9 R/B 4.0 00:38:25 22° S 00:40:16 24° SSE 00:51:29 10° ESE
EO 1 Delta rocket 4.4 00:34:50 10° N 00:41:34 78° WNW 00:44:41 27° SSW
STARLINK-1211 3.8 00:38:01 10° WNW 00:42:11 72° N 00:46:20 10° E
CZ-4 R/B 3.8 00:38:07 10° NNE 00:43:01 90° WNW 00:45:23 30° SSW
STARLINK-1244 3.8 00:40:09 10° W 00:44:18 74° N 00:48:27 10° ENE
Cosmos 2297 Rocket 3.7 00:41:10 10° NNW 00:46:22 36° NE 00:51:32 10° ESE
APEX 4.4 00:42:04 22° SW 00:46:32 78° WNW 00:52:02 10° NNE
ERBS 4.2 00:44:07 10° WNW 00:47:08 31° N 00:50:10 10° ENE
STARLINK-1245 3.8 00:43:01 10° WNW 00:47:11 73° N 00:51:20 10° E
Cosmos 2292 Rocket 4.0 00:45:34 27° SW 00:47:30 46° WNW 00:51:00 10° N
STARLINK-1138 3.8 00:45:09 10° W 00:49:17 73° N 00:53:27 10° ENE
NOSS 3-2 (C) 4.4 00:42:24 10° NW 00:49:27 45° WSW 00:54:29 22° S
NOSS 7 (A) 4.4 00:48:54 50° SW 00:49:35 87° SE 00:52:32 10° NE
SL-4 R/B 3.3 00:49:12 28° S 00:50:15 31° SE 00:54:27 10° E
NOSS 5 (C) 4.3 00:48:04 10° NW 00:51:09 88° WSW 00:53:30 21° SE
PSLV R/B 3.7 00:47:00 10° NNE 00:51:41 83° WNW 00:53:53 30° SSW
STARLINK-1203 3.9 00:47:44 10° W 00:51:57 72° N 00:56:09 10° ENE
STARLINK-1233 3.8 00:48:00 10° WNW 00:52:09 74° N 00:56:19 10° E
Cosmos 1437 4.5 00:52:48 18° ESE 00:53:46 21° E 00:56:08 10° NE
Aureole 3 4.1 00:50:54 10° NNW 00:54:14 29° W 00:55:01 26° WSW
STARLINK-1143 3.8 00:50:08 10° W 00:54:17 72° N 00:58:26 10° ENE
Cosmos 1674 2.8 00:53:21 36° SSW 00:54:43 65° WNW 00:58:28 10° N
STARLINK-1204 3.8 00:53:00 10° WNW 00:57:09 76° N 01:01:19 10° E
Cosmos 1777 Rocket 3.9 00:53:03 10° NNW 00:58:19 84° WSW 01:01:54 21° SSE
Timation 2 Rocket 4.0 00:52:02 10° NNW 00:58:30 87° NE 01:04:30 11° SSE
ATLAS CENTAUR R/B 2.0 00:56:56 30° S 00:58:30 43° SE 01:02:27 10° NE
STARLINK-1241 3.9 00:55:07 10° W 00:59:16 70° N 01:03:25 10° E
NOSS 3-4 (A) 3.4 00:57:31 24° SSW 01:01:18 76° SE 01:07:44 10° NE
NOSS 3-4 (C) 3.4 00:57:38 24° SSW 01:01:23 75° SE 01:07:50 10° NE
STARLINK-1238 3.7 00:57:57 10° WNW 01:02:07 77° N 01:06:16 10° E
SL-16 R/B 3.1 00:56:18 10° SE 01:02:19 58° ENE 01:08:21 10° N
Spot 1 4.2 01:00:54 25° SSE 01:03:39 86° WSW 01:08:35 10° NNW
STARLINK-1239 3.9 01:00:07 10° W 01:04:15 70° N 01:08:24 10° E
ATLAS 3B R/B 2.7 00:58:52 10° NW 01:05:35 67° SW 01:12:31 10° SSE
STARLINK-1201 3.7 01:02:57 10° WNW 01:07:07 79° NNE 01:11:17 10° E
CENTAUR R/B 3.6 01:01:45 10° NW 01:09:12 42° WSW 01:14:47 20° S
STARLINK-1240 3.9 01:05:07 10° W 01:09:15 69° N 01:13:24 10° E
Cosmos 1244 Rocket 4.5 01:07:54 24° S 01:11:55 87° WNW 01:18:09 10° N
STARLINK-1206 3.7 01:07:56 10° WNW 01:12:06 81° NNE 01:16:16 10° ESE
BREEZE-M DEB (TANK) 2.4 01:12:39 28° SE 01:12:39 28° SE 01:14:15 10° E
Cosmos 1908 4.3 01:10:38 10° NNW 01:13:59 30° W 01:15:09 25° WSW
Cosmos 1867 4.0 01:08:54 10° NW 01:14:00 41° WSW 01:16:44 24° S
STARLINK-1216 3.9 01:10:06 10° W 01:14:14 69° N 01:18:23 10° E
Meteor 2-21 Rocket 4.5 01:11:40 23° S 01:15:44 80° E 01:21:58 10° NNE
STARLINK-1205 3.6 01:12:55 10° WNW 01:17:05 84° NNE 01:21:15 10° ESE
Cosmos 1892 Rocket 3.6 01:14:51 28° SSW 01:17:06 72° WNW 01:21:31 10° N
Cosmos 1745 Rocket 4.4 01:12:45 18° SSE 01:17:17 58° E 01:23:18 10° NNE
STARLINK-1237 3.9 01:15:06 10° W 01:19:14 68° N 01:23:23 10° E
RESURS DK-1 3.0 01:19:17 26° S 01:21:13 45° ESE 01:25:11 10° NE
STARLINK-1218 3.6 01:17:53 10° WNW 01:22:03 86° NNE 01:26:13 10° ESE
Cosmos 2227 Rocket 3.1 01:16:37 10° NNW 01:22:11 51° NE 01:27:42 10° SE
Cosmos 1356 Rocket 3.6 01:18:42 10° N 01:22:50 72° ENE 01:25:49 19° SSE
STARLINK-1202 3.9 01:20:06 10° W 01:24:14 68° N 01:28:23 10° E
Cosmos 1726 Rocket 4.4 01:21:01 10° NNW 01:24:57 35° W 01:26:45 24° SW
Meteor 1-24 Rocket 3.6 01:22:03 24° SSW 01:25:21 84° WNW 01:30:48 10° NNE
Cosmos 2369 Rocket 3.6 01:21:05 10° WSW 01:26:11 33° NW 01:31:16 10° NNE
CZ-2D R/B 2.8 01:21:17 10° NNE 01:26:22 46° E 01:30:15 16° SSE
Helios 1B rocket 3.5 01:23:04 10° N 01:26:51 36° WNW 01:29:11 20° WSW
STARLINK-1254 3.6 01:22:53 10° WNW 01:27:03 89° NNE 01:31:13 10° ESE
Meteor 2-14 Rocket 4.5 01:24:00 22° SSW 01:28:02 74° WNW 01:34:12 10° N
ADEOS II 4.0 01:24:42 10° NE 01:28:44 22° E 01:32:45 10° SE
ATLAS 2AS CENTAUR R/B 3.2 01:23:17 15° SW 01:30:11 79° NW 01:38:07 10° NE
STARLINK-1231 3.5 01:27:53 10° WNW 01:32:03 89° SSW 01:36:12 10° ESE
CZ-4C R/B 3.5 01:30:46 20° SSE 01:33:37 84° WSW 01:38:01 10° NNW
STARLINK-1228 3.4 01:30:33 10° WNW 01:33:44 41° SSW 01:36:54 10° SE
STARLINK-1246 3.9 01:30:04 10° W 01:34:12 68° N 01:38:21 10° E
STARLINK-1234 3.2 01:32:00 10° W 01:34:57 39° SSW 01:37:02 17° SE
Resurs 1-4 Rocket 2.5 01:30:58 10° NNE 01:36:11 56° E 01:40:11 17° S
STARLINK-1212 3.0 01:33:19 10° WNW 01:36:21 48° SSW 01:39:21 10° SE
DELTA 2 DEB (DPAF) 4.3 01:34:10 23° S 01:36:47 57° W 01:41:12 10° NNW
STARLINK-1105 3.0 01:33:48 10° WNW 01:36:49 48° SSW 01:39:48 10° SE
Cosmos 1943 Rocket 4.1 01:32:34 10° W 01:37:00 24° NW 01:41:30 10° NNE
STARLINK-1232 3.5 01:32:52 10° WNW 01:37:02 86° SSW 01:41:11 10° ESE
STARLINK-1209 3.4 01:34:16 10° W 01:37:13 37° SSW 01:38:42 22° SSE
STARLINK-1247 3.0 01:34:42 10° WNW 01:37:44 47° SSW 01:40:46 10° SE
STARLINK-1227 3.0 01:35:11 10° WNW 01:38:11 47° SSW 01:41:10 10° SE
Meteor 2-5 Rocket 4.1 01:35:17 21° SW 01:38:54 53° WNW 01:44:23 10° N
STARLINK-1226 3.0 01:36:02 10° WNW 01:39:03 46° SSW 01:42:03 10° SE
STARLINK-1224 3.9 01:35:03 10° W 01:39:12 69° N 01:43:20 10° E
STARLINK-1215 3.1 01:36:59 10° WNW 01:39:59 46° SSW 01:43:00 10° SE
STARLINK-52 4.1 01:39:41 25° SSE 01:40:18 27° SE 01:43:06 10° E
STARLINK-1217 3.1 01:38:44 10° WNW 01:41:45 45° SSW 01:44:44 10° SE
STARLINK-1208 3.5 01:37:49 10° WNW 01:41:59 83° SSW 01:46:08 10° ESE
STARLINK-1229 3.1 01:39:40 10° WNW 01:42:40 44° SSW 01:45:40 10° SE
STARLINK-1270 3.1 01:40:32 10° WNW 01:43:32 43° SSW 01:46:31 10° SE
NPP 4.1 01:38:18 10° NNE 01:43:38 56° E 01:47:57 15° S
STARLINK-1225 3.9 01:40:03 10° W 01:44:12 69° N 01:48:21 10° E
STARLINK-1189 3.2 01:42:23 10° W 01:45:22 42° SSW 01:48:20 10° SE
Meteor 1-29 4.4 01:42:32 10° N 01:45:28 27° WNW 01:47:11 18° WSW
STARLINK-1188 3.2 01:43:15 10° W 01:46:15 42° SSW 01:49:13 10° SE
STARLINK-1235 3.4 01:44:00 10° W 01:46:52 34° SSW 01:49:43 10° SE
STARLINK-1271 3.5 01:42:49 10° WNW 01:46:59 79° SSW 01:51:08 10° ESE
STARLINK-1187 3.3 01:44:24 10° W 01:47:18 37° SSW 01:50:13 10° SE
Cosmos 1898 Rocket 4.1 01:42:15 10° NNW 01:47:34 60° ENE 01:52:49 10° SE
STARLINK-1191 3.2 01:45:45 10° W 01:48:42 40° SSW 01:51:37 10° SE
Cosmos 2058 Rocket 4.1 01:44:55 10° NNW 01:48:49 32° W 01:51:01 20° SW
Lacrosse 4 Rocket 3.5 01:45:07 10° NNW 01:49:03 31° NE 01:52:53 10° ESE
STARLINK-1230 3.9 01:45:02 10° W 01:49:11 70° N 01:53:19 10° E
STARLINK-1221 3.2 01:46:37 10° W 01:49:34 39° SSW 01:52:29 10° SE
Starlink 7 placeholder 1.7 01:49:43 58° SE 01:49:43 58° SE 01:51:35 10° ENE
STARLINK-1222 3.2 01:47:32 10° W 01:50:28 39° SSW 01:53:22 10° SE
STARLINK-1214 3.3 01:48:26 10° W 01:51:21 38° SSW 01:54:16 10° SE
STARLINK-1154 3.5 01:47:48 10° WNW 01:51:58 76° SSW 01:56:06 10° ESE
SJ 16-02 1.7 01:48:47 10° NNW 01:53:13 69° ENE 01:57:38 10° SSE
STARLINK-1243 3.9 01:50:02 10° W 01:54:10 70° N 01:58:19 10° E
CZ-4C R/B 4.1 01:51:25 10° SSE 01:54:52 18° ESE 01:58:40 10° ENE
Cosmos 2084 4.1 01:52:18 20° S 01:55:01 45° SE 01:59:18 10° NE
SL-14 R/B 4.1 01:54:05 20° SW 01:56:15 38° WNW 01:59:54 10° N
SL-08 ROCKET BODY 4.3 01:52:05 18° SSW 01:56:35 81° W 02:02:28 10° N
STARLINK-1197 3.5 01:52:47 10° WNW 01:56:56 73° SSW 02:01:04 10° ESE
Cosmos 1937 Rocket 4.3 01:52:41 10° NNW 01:57:49 54° ENE 02:02:58 10° SE
Cosmos 1300 3.8 01:54:58 10° NNW 01:58:18 28° W 02:00:00 20° SW
STARLINK-1236 3.9 01:55:01 10° WNW 01:59:10 71° N 02:03:19 10° E
COSMOS 2455 3.2 01:54:47 15° SW 01:59:50 61° NW 02:05:50 10° NE
Meteor 2-10 Rocket 3.6 01:54:53 10° NNW 02:00:19 82° ENE 02:05:29 10° SSE
STARLINK-1198 3.5 01:57:44 10° WNW 02:01:53 69° SSW 02:06:00 10° ESE
Cosmos 921 Rocket 3.1 02:00:21 20° SW 02:03:12 65° WNW 02:07:30 10° NNE
Cosmos 1174 4.4 02:03:35 15° WSW 02:06:02 41° NW 02:09:46 10° NNE
STARLINK-1199 3.5 02:02:45 10° WNW 02:06:53 66° SSW 02:11:00 10° ESE
Cosmos 1709 Rocket 4.1 02:01:48 13° S 02:07:23 75° E 02:13:31 10° NNE
STARLINK-1269 3.8 02:04:57 10° WNW 02:09:07 74° N 02:13:16 10° E
Cosmos 1626 Rocket 3.7 02:06:42 19° SSW 02:09:42 59° WNW 02:14:00 10° N
STARLINK-60 2.8 02:08:51 18° WSW 02:11:07 76° SSE 02:14:20 10° ENE
Cosmos 1626 3.6 02:09:03 15° WSW 02:11:15 25° WNW 02:14:25 10° NNW
STARLINK-1210 3.6 02:07:43 10° WNW 02:11:50 63° SSW 02:15:56 10° SE
STARLINK-1200 3.8 02:09:58 10° WNW 02:14:08 75° N 02:18:17 10° E
Cosmos 2219 3.3 02:09:34 10° NW 02:15:08 56° WSW 02:20:37 10° S
STARLINK-1219 3.6 02:12:42 10° WNW 02:16:48 59° SSW 02:20:53 10° SE
STARLINK-1192 3.8 02:14:58 10° WNW 02:19:07 77° N 02:23:17 10° E
Cosmos 1980 Rocket 4.2 02:16:24 10° SSE 02:20:24 20° E 02:24:25 10° NE
STARLINK-1211 3.6 02:17:41 10° WNW 02:21:45 56° SSW 02:25:49 10° SE
STARLINK-1335 4.5 02:21:22 16° S 02:22:55 22° SE 02:25:26 10° E
STARLINK-1327 4.5 02:21:41 16° S 02:23:15 22° SE 02:25:46 10° E
Cosmos 1328 4.4 02:19:24 10° S 02:23:16 53° E 02:27:11 10° NNE
STARLINK-1340 4.5 02:22:01 16° S 02:23:36 22° SE 02:26:07 10° E
STARLINK-1356 4.5 02:22:21 16° S 02:23:56 23° SE 02:26:28 10° E
ERBS 4.0 02:20:53 10° NW 02:24:01 36° NNE 02:27:10 10° E
STARLINK-1244 3.8 02:19:55 10° WNW 02:24:05 79° N 02:28:15 10° E
STARLINK-1345 4.5 02:22:41 16° S 02:24:16 23° SE 02:26:49 10° E
STARLINK-1355 4.5 02:22:59 16° S 02:24:36 23° SE 02:27:09 10° E
Cosmos 192 4.4 02:20:35 15° SSW 02:24:45 84° ESE 02:29:46 10° NNE
STARLINK-1321 4.4 02:23:18 16° S 02:24:55 23° SE 02:27:28 10° E
STARLINK-1358 4.4 02:23:39 16° S 02:25:17 23° SE 02:27:51 10° E
STARLINK-1332 4.4 02:23:57 15° S 02:25:35 23° SE 02:28:09 10° E
UNK 4.5 02:22:20 15° SSW 02:25:41 35° W 02:29:55 10° NNW
STARLINK-1348 4.4 02:24:18 15° S 02:25:58 23° SE 02:28:31 10° E
ERS-2 3.3 02:22:29 10° SE 02:25:59 44° ENE 02:29:30 10° N
STARLINK-1330 4.4 02:24:36 15° S 02:26:16 23° SE 02:28:51 10° E
Cosmos 220 Rocket 4.4 02:22:56 15° SW 02:26:24 56° WNW 02:30:47 10° NNE
STARLINK-1363 4.4 02:24:56 15° S 02:26:36 23° SE 02:29:11 10° E
Cosmos 1437 4.3 02:24:54 14° WSW 02:26:39 22° WNW 02:29:06 10° NNW
STARLINK-1245 3.7 02:22:41 10° WNW 02:26:44 53° SSW 02:30:46 10° SE
STARLINK-1337 4.4 02:25:15 15° S 02:26:57 24° SE 02:29:31 10° E
STARLINK-1342 4.4 02:25:35 15° S 02:27:17 24° SE 02:29:52 10° E
STARLINK-1364 4.4 02:25:55 15° S 02:27:38 24° SE 02:30:13 10° E
AQUA 3.8 02:23:07 10° NNE 02:27:54 78° WNW 02:32:11 13° SSW
STARLINK-1376 4.4 02:26:15 15° S 02:27:59 24° SE 02:30:34 10° E
Cosmos 1812 Rocket 4.2 02:23:47 10° NNW 02:28:00 41° W 02:31:37 13° SSW
STARLINK-1360 4.4 02:26:30 15° S 02:28:15 24° SE 02:30:51 10° E
STARLINK-1361 4.4 02:26:56 15° S 02:28:41 24° SE 02:31:17 10° E
STARLINK-1367 4.4 02:27:10 15° S 02:28:57 25° SE 02:31:36 10° E
STARLINK-1138 3.7 02:24:55 10° WNW 02:29:05 81° NNE 02:33:14 10° E
STARLINK-1366 4.4 02:27:33 15° S 02:29:19 24° SE 02:31:56 10° E
SL-4 R/B 2.3 02:24:49 10° WSW 02:29:39 76° SSE 02:34:18 10° E
CZ-4B R/B 3.6 02:25:18 10° NNE 02:30:25 74° WNW 02:35:12 12° SSW
Cosmos 2297 Rocket 2.4 02:25:10 10° NW 02:30:39 53° WSW 02:36:07 10° S
STARLINK-1233 3.8 02:27:40 10° WNW 02:31:41 50° SSW 02:35:42 10° SE
STARLINK-1203 3.7 02:27:43 10° WNW 02:31:57 82° NNE 02:36:10 10° ESE
STARLINK-1353 4.5 02:31:17 14° SSW 02:33:33 27° SE 02:36:33 10° E
STARLINK-1143 3.7 02:29:54 10° WNW 02:34:04 83° NNE 02:38:13 10° ESE
Cosmos 2082 3.7 02:28:44 10° NNW 02:34:26 88° WSW 02:40:05 10° SSE
STARLINK-1375 4.4 02:33:04 14° SSW 02:35:24 28° SE 02:38:26 10° E
Cosmos 990 Rocket 4.1 02:31:21 10° NNW 02:36:33 60° WSW 02:41:41 10° S
STARLINK-1204 3.8 02:32:40 10° WNW 02:36:40 47° SSW 02:40:38 10° SE
CBERS-1 4.1 02:32:08 10° NNE 02:37:17 90° ESE 02:42:25 10° SSW
ATLAS CENTAUR R/B 2.6 02:33:30 10° WSW 02:37:30 36° NW 02:41:16 10° NNE
STARLINK-1350 4.4 02:35:22 14° SSW 02:37:47 29° SE 02:40:51 10° E
FALCON 9 DEB 3.5 02:35:24 15° SW 02:38:06 51° SSE 02:41:29 10° ENE
STARLINK-1241 3.7 02:34:52 10° WNW 02:39:02 85° NNE 02:43:12 10° ESE
STARLINK-29 2.9 02:36:59 13° WSW 02:39:46 71° SSE 02:42:58 10° ENE
STARLINK-1352 4.3 02:37:40 14° SSW 02:40:12 30° SE 02:43:20 10° E
Cosmos 1455 2.6 02:37:13 10° NNW 02:40:48 42° W 02:44:16 10° SSW
STARLINK-1238 3.9 02:37:38 10° WNW 02:41:35 44° SSW 02:45:32 10° SE
STARLINK-1368 4.3 02:39:45 13° SSW 02:42:22 31° SE 02:45:32 10° E
Cosmos 1602 Rocket 4.4 02:39:06 13° SW 02:42:37 37° WNW 02:46:39 10° N
Cosmos 1825 Rocket 3.5 02:38:22 10° SSW 02:42:39 84° W 02:47:01 10° N
STARLINK-1239 3.6 02:39:51 10° WNW 02:44:01 88° NNE 02:48:11 10° ESE
STARLINK-1369 4.3 02:41:37 13° SSW 02:44:16 32° SE 02:47:26 10° E
ATLAS CENTAUR R/B 2.8 02:42:23 10° W 02:45:11 31° SW 02:50:45 10° SSE
Meteor 1-28 Rocket 3.6 02:42:01 10° SSE 02:45:46 67° ENE 02:49:32 10° N
Cosmos 2263 Rocket 3.9 02:40:58 10° NNW 02:46:12 38° NE 02:51:24 10° ESE
SL-16 R/B 3.4 02:41:06 11° SSW 02:46:16 31° W 02:51:41 10° NNW
STARLINK-1201 4.0 02:42:39 10° WNW 02:46:34 41° SSW 02:50:28 10° SE
STARLINK-1372 4.2 02:43:58 13° SSW 02:46:44 33° SSE 02:49:57 10° E
Cosmos 2074 Rocket 4.5 02:42:31 10° S 02:48:44 64° E 02:54:59 10° NNE
STARLINK-1378 4.2 02:46:05 12° SSW 02:48:56 34° SSE 02:52:11 10° E
STARLINK-1240 3.6 02:44:50 10° WNW 02:49:01 90° SSW 02:53:10 10° ESE
GP-B 3.5 02:44:48 10° N 02:49:08 51° W 02:53:25 10° SSW
STARLINK-1329 4.2 02:46:35 12° SSW 02:49:28 35° SSE 02:52:43 10° E
STARLINK-1365 4.1 02:47:17 12° SSW 02:50:11 36° SSE 02:53:27 10° E
IRS-1D 3.7 02:44:50 10° NNE 02:50:11 74° WNW 02:55:27 10° SSW
Cosmos 841 Rocket 4.3 02:45:36 10° S 02:50:37 48° ESE 02:55:38 10° NE
STARLINK-1379 4.1 02:48:13 12° SSW 02:51:09 35° SSE 02:54:25 10° E
STARLINK-1206 4.1 02:47:38 10° WNW 02:51:32 39° SSW 02:55:23 10° SE
STARLINK-1362 4.1 02:48:47 12° SSW 02:51:44 36° SSE 02:55:01 10° E
Cosmos-2242 3.3 02:48:13 10° NNW 02:52:21 49° W 02:56:27 10° SSW
ATLAS 5 CENTAUR R/B 3.7 02:52:28 10° NNW 02:53:25 12° N 02:54:28 10° NNE
Cosmos 1400 Rocket 3.0 02:49:25 10° NNW 02:53:33 84° E 02:57:41 10° SSE
STARLINK-1216 3.6 02:49:49 10° WNW 02:53:59 87° SSW 02:58:08 10° ESE
STARLINK-1373 4.1 02:50:59 12° SW 02:54:02 37° SSE 02:57:20 10° E
Cosmos 2221 3.8 02:50:08 10° N 02:54:17 43° ENE 02:58:25 10° SSE
ATLAS 3B R/B 4.1 02:51:10 10° WNW 02:55:10 16° WSW 02:59:13 10° SW
COBE Rocket 4.0 02:50:55 10° SSE 02:55:51 88° ENE 03:00:58 10° NNW
STARLINK-1390 4.0 02:52:59 11° SW 02:56:05 38° SSE 02:59:23 10° E
STARLINK-1205 4.1 02:52:38 10° WNW 02:56:28 37° SW 03:00:17 10° SSE
STARLINK-1237 3.6 02:54:48 10° WNW 02:58:58 84° SSW 03:03:07 10° ESE
RESURS DK-1 3.9 02:55:49 10° WSW 02:59:26 28° NW 03:03:03 10° NNE
Cosmos 2184 Rocket 4.2 02:54:05 10° S 03:00:14 74° E 03:06:24 10° NNE
SL-08 R/B 3.4 02:56:45 10° S 03:01:23 59° WSW 03:06:00 10° NNW
STARLINK-1218 4.2 02:57:38 10° W 03:01:24 34° SW 03:05:10 10° SSE
CZ-4C R/B 3.6 02:58:09 10° SSE 03:01:43 64° ENE 03:05:21 10° N
STARLINK-1202 3.6 02:59:48 10° WNW 03:03:58 81° SSW 03:08:06 10° ESE
IRS-P3 4.2 03:00:27 10° NNE 03:05:48 76° WNW 03:11:07 10° SSW
Cosmos 2227 Rocket 2.9 03:01:00 10° NW 03:06:04 34° WSW 03:11:07 10° S
Cosmos 1703 3.7 03:02:26 10° SSW 03:06:17 50° WNW 03:10:10 10° N
CZ-2D R/B 3.2 03:01:38 10° N 03:06:18 33° WNW 03:10:55 10° WSW
STARLINK-1254 4.3 03:02:39 10° W 03:06:22 32° SW 03:10:04 10° SSE
Cosmos 2181 Rocket 4.4 03:00:43 10° NNW 03:06:50 48° W 03:12:58 10° SSW
ADEOS II 2.2 03:03:41 10° N 03:08:55 66° WNW 03:14:07 10° SSW
Cosmos 1763 Rocket 3.5 03:04:12 10° SSW 03:09:19 74° WNW 03:14:26 10° NNE
Cosmos 2150 Rocket 4.3 03:05:01 10° NNW 03:10:16 73° ENE 03:15:25 10° SSE
STARLINK-1231 4.4 03:07:41 10° W 03:11:20 30° SW 03:14:58 10° SSE
Cosmos 1697 Rocket 2.9 03:05:43 10° SSW 03:11:22 78° ESE 03:17:05 10° NNE
Cosmos 1315 Rocket 3.7 03:09:42 10° N 03:13:34 52° ENE 03:17:24 10° SSE
STARLINK-1246 3.6 03:09:45 10° WNW 03:13:54 74° SSW 03:18:02 10° ESE
CZ-2C R/B 3.7 03:12:08 10° NNE 03:15:41 44° E 03:19:16 10° S
Resurs 1-4 Rocket 3.4 03:11:18 10° N 03:15:44 28° WNW 03:20:10 10° WSW
